Tracking 29892 objects as of 21-Nov-2024
HD Live streaming from Space Station
objects crossing your sky now

STARLINK-31770

Track STARLINK-31770 now!
10-day predictions
STARLINK-31770 is classified as:


NORAD ID: 59601
Int'l Code: 2024-080A
Perigee: 449.6 km
Apogee: 452.8 km
Inclination: 43.0 °
Period: 93.5 minutes
Semi major axis: 6822 km
RCS: Unknown
Launch date: April 28, 2024
Source: United States (US)
Launch site: AIR FORCE EASTERN TEST RANGE (AFETR)
Your satellite tracking list
Your tracking list is empty




NASA's NSSDC Master Catalog

Two Line Element Set (TLE):
1 59601U 24080A   24325.14043490  .00001554  00000-0  44469-4 0  9992
2 59601  43.0066 217.2008 0002329 266.2339  93.8252 15.40693603 32943
Source of the keplerian elements: AFSPC